Location: Borotín
(49.5055°N, 14.6142°E)
Time: 18:10:43
(UTC+00:00)

DNEPR-1 R/B - Pass Details

Date: 27 May 2022
Orbit: 577 x 1344 km, 64.6° (Epoch: 26 June)

Event Time Altitude Azimuth Distance (km) Brightness Sun altitude
Exits shadow 02:08:45 - 202° (SSW) 2,063 5.7 -7.6°
Reaches altitude 10° 02:09:09 10° 201° (SSW) 1,903 5.5 -7.6°
Maximum altitude 02:13:16 56° 123° (ESE) 739 4.0 -7.1°
Drops below altitude 10° 02:17:53 10° 46° (NE) 2,137 8.2 -6.6°
Sets 02:20:26 0° 43° (NE) 3,161 9.9 -6.3°
